Location: ???????????
(55.5758°N, 38.4970°E)
Time: 17:19:46
(UTC+00:00)

Okean 1 Rocket - Pass Details

Date: 15 November 2025
Orbit: 599 x 628 km, 82.5° (Epoch: 14 December)

Event Time Altitude Azimuth Distance (km) Brightness Sun altitude
Rises 03:00:59 0° 348° (NNW) 2,882 6.3 -16.5°
Reaches altitude 10° 03:03:14 10° 349° (N) 1,969 5.4 -16.2°
Maximum altitude 03:07:35 81° 77° (ENE) 618 3.1 -15.6°
Drops below altitude 10° 03:11:53 10° 166° (SSE) 1,942 5.9 -15.0°
Sets 03:14:05 0° 167° (SSE) 2,839 6.8 -14.7°
